Location: Barcelona
(41.3830°N, 2.1830°E)
Time: 08:41:52
(UTC+02:00)

ISS - Pass Details

Date: 19 July 2017
Orbit: 400 x 408 km, 51.6° (Epoch: 21 July)

Event Time Altitude Azimuth Distance (km) Brightness Sun altitude
Exits shadow 03:43:35 - 307° (NW) 1,827 -0.4 -23.1°
Reaches altitude 10° 03:44:59 10° 324° (NW) 1,455 -0.7 -23.0°
Maximum altitude 03:46:45 14° 357° (N) 1,253 -0.6 -22.8°
Drops below altitude 10° 03:48:31 10° 30° (NNE) 1,457 0.1 -22.7°
Sets 03:51:24 0° 58° (ENE) 2,319 1.0 -22.4°
